Карточка аэропорта UAKK

Внимание!
Информация на этой странице в стадии наполнения.
Если вы не увидели какой-то информации, или заметили неточность - пожалуйста сообщите нам!
Спасибо!
Команда RU-STAFF
Название аэропортаКараганда
Название аэропорта (англ.)Karaganda
Превышение1768 ft. (538.9 m.)
Координаты49°40.302', 73°20.118'
Высота перехода10000
Эшелон переходаby ATC
Коды ответчика0630-0637, 7220-7227
Зона ОрВДНур-Султан РПИ (UACN)
Данные METARUAKK 300800Z 18003MPS CAVOK M09/M15 Q1023 NOSIG RMK QFE720/0960
Проноз погоды (TAF)UAKK 300500Z 3006/3106 VRB02MPS 9999 SCT020 BKN100 TXM18/3009Z TNM25/3101Z TEMPO 3006/3012 5000 IC BR SCT011 TEMPO 3012/3018 15005MPS TEMPO 3100/3106 3100 -SN BR BKN007
NOTAMshow/hide NOTAM
AWOS   TABLE

Информация о ВПП

ВПП Длина ВПП (м.) Покрытие Курс ВПП Частота ILS
053601Железобетон50109.9
233601Железобетон230111.7

Диспетчерские позиции




Спутниковое изображение